Regional Weather Roundup
Issued by NWS

Home | Current Version | Previous Version | Text Only | Print | Product List | Glossary Off
Versions: 1 2 3 4 5 6 7 8 9 10 11 12 13 14 15 16 17 18 19 20 21 22 23 24 25 26 27 28 29 30 31 32 33 34 35 36 37 38 39 40 41 42 43 44 45 46 47 48 49 50

132
ASUS44 KMEG 250810
RWRTN
TENNESSEE HOURLY STATE WEATHER ROUNDUP
NATIONAL WEATHER SERVICE MEMPHIS TN
300 AM CDT SAT MAR 25 2017

TNZ002-004-019-021-049-052-054-088>092-250900-
WEST TENNESSEE

CITY           SKY/WX    TMP DP  RH WIND       PRES   REMARKS
MEMPHIS INTL   CLOUDY    69  59  70 S20G29    29.95F
NWS MEMPHIS      N/A     68 N/A N/A MISG        N/A
JACKSON        MOCLDY    68  57  68 S10G20    30.01S
DYERSBURG      CLOUDY    67  58  72 S12G22    29.96F
SOMERVILLE     MOCLDY    68  59  73 S13G22    29.98F
BOLIVAR        MOCLDY    66  57  72 S15       30.01S
PARIS          CLEAR     64  54  68 S13       30.01F
HUNTINGDON     MOCLDY    68  55  64 S16G25    30.01F
SAVANNAH       PTCLDY    66  55  68 S14G22    30.04F
$$

TNZ008-025-027-028-033-062-065-066-250900-
NORTH MIDDLE TENNESSEE

CITY           SKY/WX    TMP DP  RH WIND       PRES   REMARKS
NASHVILLE      MOCLDY    62  51  67 S5        30.09F
PORTLAND       MOCLDY    64  50  59 S12       30.08F
CLARKSVILLE    MOCLDY    67  52  58 S13G22    30.03F
SMYRNA         PTCLDY    63  51  65 S5        30.11F
COOKEVILLE     MOCLDY    63  50  63 S8        30.15S
GALLATIN       CLOUDY    63  50  63 SE5       30.12F
CROSSVILLE     PTCLDY    60  46  59 S8        30.20F
$$

TNZ061-075-076-078-094-096-097-250900-
SOUTH MIDDLE TENNESSEE

CITY           SKY/WX    TMP DP  RH WIND       PRES   REMARKS
FAYETTEVILLE   MOCLDY    64  52  63 S13       30.14S
TULLAHOMA      CLEAR     64  46  52 S10       30.15F
WINCHESTER     CLEAR     64  48  55 S17       30.15F
MCMINNVILLE    CLEAR     64  48  55 S5        30.15S
COLUMBIA       CLEAR     66  54  63 S14       30.07S
SHELBYVILLE    CLEAR     66  52  59 S13       30.13F
$$

TNZ017-018-042-046-047-250900-
NORTHEAST TENNESSEE

CITY           SKY/WX    TMP DP  RH WIND       PRES   REMARKS
TRI CITIES     CLOUDY    53  46  77 N3        30.23F
ELIZABETHTON   CLOUDY    55  46  71 NE5       30.23F
$$

TNZ012-013-036-069-073-074-250900-
CENTRAL EAST TENNESSEE

CITY           SKY/WX    TMP DP  RH WIND       PRES   REMARKS
KNOXVILLE      NOT AVBL
OAK RIDGE      MOCLDY    55  46  71 CALM      30.21S
DOWNTOWN KNOXV PTCLDY    50  50 100 CALM      30.20S
GATLINBURG     CLEAR     52  45  76 NE3       30.17F
MORRISTOWN     PTCLDY    57  48  72 CALM      30.19F
JACKSBORO      CLOUDY    54  46  76 CALM      30.22S
$$

TNZ083-085-099-250900-
SOUTHEAST TENNESSEE

CITY           SKY/WX    TMP DP  RH WIND       PRES   REMARKS
CHATTANOOGA    CLOUDY    64  48  56 SE5       30.21R
$$

SKY/WX REPORTED AS FAIR MEANS FEW OR NO CLOUDS BELOW
12 THOUSAND FEET.





USA.gov is the U.S. government's official web portal to all federal, state and local government web resources and services.